[[[{"header":{"parameterUnit":"kt","parameterCategory":2,"dx":1,"dy":1,"la1":30.253999710083008,"la2":30.299108505249023,"lo1":-89.0895004272461,"lo2":-89.04439544677734,"nx":28,"ny":28,"refTime":"2022-09-21T09:00:00:Z","depth":"0","parameterNumber":2,"parameterNumberName":"U-component_of_CURRENTS"},"data":[0.4698,0.463,0.466,0.4556,0.4584,0.4587,0.4688,0.4933,0.5284,0.5838,0.6363,0.6878,0.7729,0.8499,0.8815,0.8877,0.8113,0.7951,0.759,0.845,0.8485,0.8517,0.832,0.8175,0.8173,0.6158,0.6143,0.6131,0.4826,0.4842,0.4853,0.4877,0.4859,0.499,0.519,0.5288,0.5551,0.6067,0.6474,0.7399,0.8142,0.8931,0.9757,0.964,0.9347,0.945,0.8631,0.8497,0.9755,0.9613,0.9741,0.9741,0.9742,0.9742,0.9742,0.9743,0.5059,0.5044,0.509,0.5108,0.5162,0.525,0.5303,0.5571,0.5812,0.6234,0.6656,0.7198,0.8105,0.9285,0.9642,1.0141,0.9848,1.0053,0.9881,0.9364,0.9022,1.0249,1.0694,1.0693,1.0693,1.0693,1.0693,0,0.5236,0.5277,0.5316,0.5347,0.5397,0.5486,0.5642,0.574,0.6135,0.6374,0.6808,0.7162,0.8102,0.875,0.9556,1.0031,0.9707,1.0311,0.9824,0.9528,0.8823,0.8668,0.9894,1.0291,1.0288,1.0286,1.0285,1.0284,0.5436,0.5424,0.5554,0.5568,0.5632,0.5715,0.5789,0.6076,0.6229,0.67,0.6831,0.7394,0.7815,0.8731,0.9326,0.9959,0.9572,1.0235,1.0111,0.956,0.9412,0.8841,0.8644,1.0255,1.0259,1.0262,1.0264,0,0.5539,0.5647,0.5676,0.5841,0.5877,0.5905,0.6121,0.6211,0.6474,0.6711,0.6823,0.7306,0.7874,0.8345,0.8979,0.9203,0.9439,0.9827,0.9715,0.98,0.9554,0.935,0.9016,0.8806,1.0172,1.0176,1.018,0,0.5756,0.576,0.5927,0.5936,0.5971,0.6161,0.6242,0.6427,0.6681,0.6853,0.7152,0.7368,0.7866,0.8262,0.8595,0.9126,0.9175,0.9381,0.9487,0.945,0.9448,0.9135,0.8926,0.9444,0.944,0.9438,0.9435,0,0.5883,0.6003,0.6025,0.6073,0.626,0.632,0.6432,0.667,0.6796,0.7085,0.7203,0.7565,0.7777,0.8137,0.856,0.85,0.9106,0.9092,0.9349,0.9353,0.9462,0.9464,0.9292,0.9431,0.943,0.9429,0.9428,0,0.6077,0.6145,0.6172,0.6327,0.6358,0.6397,0.6591,0.6699,0.6969,0.71,0.7329,0.7507,0.7819,0.7841,0.8374,0.8244,0.8483,0.8681,0.8704,0.8776,0.8821,0.9095,0.9352,0.8896,0.8932,0.8927,0.8923,0,0.6178,0.623,0.6357,0.6393,0.643,0.6615,0.67,0.6865,0.7008,0.7151,0.7395,0.7568,0.7658,0.7767,0.7947,0.8257,0.842,0.8209,0.8686,0.8698,0.8693,0.8914,0.8921,0.9266,0.8861,0.8867,0.8872,0,0.6256,0.6434,0.6431,0.6476,0.6631,0.6674,0.679,0.6943,0.7023,0.7172,0.7299,0.7555,0.7657,0.7765,0.7913,0.8072,0.8321,0.8143,0.8155,0.8248,0.8771,0.8821,0.8868,0.8428,0.8434,0.8439,0.8822,0,0.6441,0.6486,0.6498,0.6598,0.6665,0.6706,0.6844,0.6927,0.7017,0.7117,0.7329,0.7491,0.768,0.7765,0.7837,0.8063,0.8099,0.8146,0.81,0.8213,0.8367,0.8406,0.7955,0.7955,0.7955,0.7955,0,0,0.6483,0.6538,0.665,0.6689,0.6741,0.6866,0.6891,0.6972,0.7102,0.7183,0.7187,0.75,0.7605,0.7823,0.787,0.7933,0.8049,0.7864,0.8151,0.8171,0.8192,0.8343,0.8379,0.7956,0.7956,0.7956,0.7956,0,0.6556,0.6628,0.6643,0.6712,0.6818,0.6888,0.6907,0.7019,0.7083,0.7174,0.7306,0.7454,0.7581,0.772,0.7807,0.7921,0.7996,0.7972,0.793,0.8146,0.8166,0.8185,0.8337,0.837,0.7956,0.7956,0.7956,0,0.6626,0.6705,0.6721,0.6826,0.6886,0.6931,0.7007,0.7067,0.7116,0.7214,0.7287,0.7415,0.756,0.7678,0.7735,0.7708,0.7943,0.7831,0.7834,0.7797,0.8018,0.8041,0.8063,0.7785,0.7784,0.7783,0,0,0.6676,0.6718,0.6829,0.6845,0.6883,0.6982,0.7021,0.708,0.7172,0.7211,0.728,0.739,0.7524,0.7565,0.7668,0.7743,0.783,0.7803,0.7812,0.7818,0.7784,0.8004,0.8028,0.7778,0.7778,0.7778,0,0,0.6695,0.6819,0.6856,0.6885,0.6959,0.7062,0.7078,0.7138,0.7223,0.7238,0.7322,0.7346,0.747,0.7508,0.744,0.7648,0.7627,0.7641,0.7586,0.7597,0.7605,0.7538,0.7448,0,0,0,0,0,0.6807,0.6805,0.6837,0.6855,0.6968,0.7044,0.7061,0.7136,0.7168,0.7182,0.728,0.7288,0.7514,0.7454,0.747,0.752,0.7717,0.7728,0.7738,0.769,0.7702,0.7711,0,0,0,0,0,0,0.6815,0.6835,0.6838,0.6938,0.6965,0.7044,0.7092,0.7112,0.7168,0.7177,0.7274,0.729,0.7338,0.7447,0.7461,0.7508,0.7444,0.7721,0.773,0.7739,0.7694,0.7703,0.7711,0,0,0,0,0,0.6822,0.6838,0.6997,0.6939,0.6962,0.7065,0.7092,0.7109,0.7156,0.7242,0.726,0.7213,0.7336,0.7354,0.7455,0.7502,0.7434,0.7439,0.7727,0.7734,0.7741,0.7699,0,0,0,0,0,0,0.6827,0.6852,0.7003,0.7014,0.6944,0.7063,0.7082,0.7107,0.7218,0.7237,0.7182,0.7187,0.7334,0.7348,0.7362,0.7499,0.7426,0.7431,0.7435,0.7733,0.7738,0.7743,0,0,0,0,0,0,0.6844,0.686,0.7009,0.7011,0.7022,0.706,0.7077,0.7129,0.7218,0.7152,0.716,0.7183,0.7318,0.7345,0.7355,0.7433,0.742,0.7425,0.7428,0.7431,0.7737,0.7742,0,0,0,0,0,0,0.6853,0.6866,0.7008,0.7017,0.7027,0.7149,0.7107,0.7218,0.7219,0.7145,0.7222,0.7224,0.7313,0.7325,0.735,0.7423,0.743,0.742,0.7423,0.7426,0.7428,0,0,0,0,0,0,0,0.686,0.6745,0.6944,0.7022,0.7031,0.7113,0.7116,0.7118,0.722,0.7221,0.7222,0.7223,0.739,0.7396,0.7402,0.7415,0,0,0.7419,0.7422,0,0,0,0,0,0,0,0,0.6742,0.6745,0.6944,0.6947,0.6949,0.7114,0.7116,0.7118,0.722,0.7221,0.7222,0.7223,0.7392,0.7397,0.7401,0,0,0,0,0,0,0,0,0,0,0,0,0,0,0,0.6945,0.6947,0,0.7114,0.7116,0.7117,0.722,0.7221,0.7221,0.7222,0.7393,0.7397,0.7401,0,0,0,0,0,0,0,0,0,0,0,0,0,0,0,0,0,0,0,0,0,0,0,0,0,0,0,0,0,0,0,0,0,0,0,0,0,0,0,0,0,0,0,0,0,0,0,0,0,0,0,0,0,0,0,0,0,0,0,0,0,0,0,0,0,0,0,0,0]}],[{"header":{"parameterUnit":"kt","parameterCategory":2,"dx":1,"dy":1,"la1":30.253999710083008,"la2":30.299108505249023,"lo1":-89.0895004272461,"lo2":-89.04439544677734,"nx":28,"ny":28,"refTime":"2022-09-21T09:00:00:Z","depth":"0","parameterNumber":3,"parameterNumberName":"V-component_of_CURRENTS"},"data":[0.1381,0.1552,0.1646,0.1967,0.2131,0.238,0.253,0.2779,0.3059,0.3538,0.386,0.4075,0.3561,0.1163,-0.0577,-0.1076,-0.1608,-0.1782,-0.2076,-0.1565,-0.1509,-0.1456,-0.1477,-0.2008,-0.201,-0.2662,-0.267,-0.2677,0.1317,0.144,0.1632,0.1871,0.2058,0.2146,0.2411,0.2571,0.2812,0.3131,0.3289,0.3316,0.2554,0.1751,0.0516,-0.035,-0.0621,-0.0825,-0.0937,-0.0989,-0.0188,-0.0157,-0.0415,-0.0415,-0.0415,-0.0414,-0.0414,-0.0414,0.1225,0.1334,0.1503,0.1702,0.1886,0.2102,0.2256,0.2442,0.265,0.2887,0.2857,0.3021,0.2509,0.1736,0.1132,0.0199,0.0189,-0.0052,-0.0284,-0.0343,-0.0442,0.0469,0.03,0.0299,0.0298,0.0297,0.0297,0,0.1151,0.1216,0.1359,0.1568,0.1731,0.193,0.2115,0.2224,0.2369,0.2486,0.2608,0.2614,0.2222,0.1892,0.1281,0.0912,0.0332,0.0512,0.0129,-0.0046,-0.0148,-0.0307,0.0631,0.0538,0.0538,0.0539,0.0539,0.0539,0.1048,0.1142,0.136,0.1471,0.1562,0.1748,0.1882,0.201,0.2126,0.2261,0.2328,0.2239,0.2226,0.1761,0.1295,0.0834,0.0548,0.0542,0.0525,0.0167,-0.0126,-0.0213,-0.0297,0.0544,0.0543,0.0543,0.0542,0,0.1003,0.1084,0.1261,0.1443,0.1509,0.164,0.1838,0.1956,0.2026,0.2158,0.2169,0.2145,0.1985,0.1712,0.1394,0.1125,0.0645,0.0693,0.0797,0.0737,0.0185,-0.0025,-0.0391,-0.0517,0.0396,0.0394,0.0392,0,0.0955,0.107,0.1208,0.1291,0.1477,0.1552,0.1728,0.1802,0.1895,0.2008,0.1935,0.1982,0.1748,0.1601,0.1346,0.1051,0.1086,0.079,0.0713,0.0795,0.0794,0.0407,0.0187,0.0823,0.0825,0.0826,0.0828,0,0.0863,0.1032,0.1171,0.1225,0.139,0.1475,0.1563,0.1658,0.1743,0.1784,0.183,0.1762,0.174,0.1529,0.1304,0.1284,0.1073,0.1007,0.0767,0.0758,0.0732,0.0722,0.0404,0.083,0.083,0.0831,0.0832,0,0.0812,0.0903,0.1066,0.1228,0.1269,0.1358,0.1506,0.1582,0.1643,0.1657,0.166,0.1602,0.1584,0.1471,0.1299,0.134,0.1157,0.1044,0.1032,0.0912,0.0808,0.068,0.0751,0.0395,0.084,0.0841,0.0842,0,0.0715,0.0862,0.0896,0.1058,0.1145,0.1171,0.1267,0.1331,0.1358,0.1418,0.138,0.1422,0.134,0.1345,0.1297,0.1196,0.1119,0.1192,0.0888,0.0879,0.0795,0.0877,0.0953,0.0772,0.0858,0.0856,0.0855,0,0.0627,0.074,0.0756,0.083,0.0899,0.0959,0.1044,0.1132,0.1193,0.1192,0.1264,0.1298,0.1247,0.1248,0.1205,0.1165,0.1133,0.1061,0.1053,0.0945,0.0957,0.0901,0.0884,0.1078,0.1078,0.1078,0.0867,0,0.0593,0.0654,0.069,0.0766,0.0816,0.0876,0.0901,0.0944,0.094,0.095,0.1015,0.0991,0.1012,0.1025,0.0999,0.1044,0.0961,0.0916,0.0808,0.0918,0.081,0.0801,0.0855,0.0852,0.0849,0.0847,0,0,0.0492,0.0561,0.0556,0.0617,0.0659,0.0632,0.071,0.0725,0.0747,0.0775,0.0727,0.0781,0.0759,0.0834,0.0885,0.0876,0.0794,0.0826,0.0885,0.0891,0.0895,0.0798,0.0792,0.0842,0.0841,0.084,0.0839,0,0.0474,0.0479,0.053,0.0564,0.0591,0.0599,0.0616,0.0626,0.0626,0.0692,0.0639,0.0667,0.0684,0.0685,0.0687,0.0833,0.0682,0.0827,0.0926,0.0864,0.0873,0.088,0.0787,0.0785,0.0832,0.0833,0.0833,0,0.0415,0.0424,0.0443,0.0482,0.0491,0.0548,0.0478,0.0506,0.0551,0.0461,0.0514,0.0498,0.0479,0.054,0.0557,0.0506,0.0566,0.0579,0.0594,0.0588,0.0516,0.0529,0.054,0.0385,0.0384,0.0383,0,0,0.0397,0.0429,0.044,0.0474,0.0488,0.0478,0.049,0.047,0.0472,0.047,0.0443,0.0425,0.0443,0.0442,0.0443,0.0499,0.0413,0.0528,0.0549,0.0567,0.057,0.0505,0.0518,0.0378,0.0378,0.0378,0,0,0.0378,0.0389,0.0379,0.0415,0.0441,0.0432,0.0454,0.0433,0.0443,0.0422,0.036,0.035,0.04,0.0361,0.0312,0.04,0.031,0.032,0.0426,0.0451,0.0472,0.0473,0.0192,0,0,0,0,0,0.0359,0.0394,0.0386,0.039,0.0405,0.0447,0.0449,0.0413,0.0368,0.0401,0.0378,0.0296,0.033,0.0286,0.0281,0.0328,0.0321,0.0331,0.0341,0.0491,0.0518,0.0541,0,0,0,0,0,0,0.036,0.0366,0.0385,0.0377,0.038,0.0444,0.0363,0.0355,0.0363,0.0355,0.0308,0.0295,0.0245,0.0282,0.0279,0.0326,0.0193,0.0325,0.0334,0.0341,0.05,0.0522,0.0542,0,0,0,0,0,0.0361,0.0366,0.0396,0.0376,0.0379,0.0346,0.036,0.0353,0.0359,0.03,0.0288,0.0331,0.0248,0.0241,0.028,0.0329,0.0194,0.0194,0.0331,0.0337,0.0343,0.0511,0,0,0,0,0,0,0.0362,0.0362,0.0396,0.0395,0.0347,0.0342,0.034,0.0352,0.0303,0.0293,0.0318,0.0312,0.0251,0.0244,0.0239,0.0336,0.0196,0.0195,0.0194,0.0336,0.0341,0.0346,0,0,0,0,0,0,0.0359,0.0362,0.0395,0.036,0.0355,0.0339,0.0337,0.0339,0.0301,0.0323,0.0316,0.0315,0.0239,0.0248,0.0243,0.025,0.0197,0.0196,0.0195,0.0195,0.034,0.0344,0,0,0,0,0,0,0.036,0.0362,0.036,0.0357,0.0352,0.0345,0.0338,0.0342,0.0308,0.0324,0.03,0.0296,0.0242,0.0238,0.0247,0.0256,0.0251,0.0197,0.0196,0.0196,0.0195,0,0,0,0,0,0,0,0.036,0.0351,0.0397,0.0353,0.0349,0.0391,0.0391,0.0391,0.0307,0.0304,0.0301,0.0298,0.0201,0.02,0.0199,0.026,0,0,0.0197,0.0196,0,0,0,0,0,0,0,0,0.035,0.0351,0.0397,0.0397,0.0397,0.0391,0.0391,0.0391,0.0307,0.0304,0.0302,0.0299,0.0201,0.02,0.0199,0,0,0,0,0,0,0,0,0,0,0,0,0,0,0,0.0397,0.0397,0,0.0391,0.0391,0.0391,0.0307,0.0304,0.0302,0.03,0.0201,0.02,0.0199,0,0,0,0,0,0,0,0,0,0,0,0,0,0,0,0,0,0,0,0,0,0,0,0,0,0,0,0,0,0,0,0,0,0,0,0,0,0,0,0,0,0,0,0,0,0,0,0,0,0,0,0,0,0,0,0,0,0,0,0,0,0,0,0,0,0,0,0,0]}]],[[{"header":{"parameterUnit":"kt","parameterCategory":2,"dx":1,"dy":1,"la1":30.253999710083008,"la2":30.299108505249023,"lo1":-89.0895004272461,"lo2":-89.04439544677734,"nx":28,"ny":28,"refTime":"2022-09-21T09:00:00:Z","depth":"2","parameterNumber":2,"parameterNumberName":"U-component_of_CURRENTS"},"data":[0.4447,0.4378,0.4354,0.4198,0.4187,0.4104,0.4101,0.4055,0.3975,0.3701,0.3463,0.3583,0.3543,0.2864,0.2847,0.2742,0.3185,0.2621,0.406,0.3973,0.4079,0.4398,0.3951,0,0,0,0,0,0.451,0.4505,0.4502,0.4473,0.4417,0.4531,0.4599,0.4543,0.4586,0.4652,0.4787,0.4067,0.3932,0.4038,0.3645,0.3624,0.3537,0.3674,0.3524,0.364,0.3746,0.3384,0.2589,0.2587,0.2585,0.2583,0,0,0.4625,0.4615,0.4632,0.4634,0.4677,0.4702,0.47,0.4852,0.4983,0.5153,0.5444,0.5394,0.5251,0.4951,0.4967,0.4933,0.5251,0.5047,0.5086,0.5142,0.485,0.4679,0.4441,0.445,0.4458,0.4465,0.4471,0,0.4692,0.472,0.4739,0.4763,0.4813,0.4873,0.4995,0.5067,0.5326,0.5509,0.5752,0.5917,0.6121,0.5865,0.5994,0.5932,0.6061,0.5879,0.7015,0.5269,0.5106,0.5081,0.5116,0.4996,0.5009,0.5018,0.5025,0.503,0.477,0.4776,0.4853,0.4867,0.4907,0.5004,0.5073,0.5284,0.5382,0.5756,0.5834,0.6229,0.6394,0.6751,0.6596,0.6698,0.7067,0.6176,0.5834,0.6691,0.6671,0.6652,0.6632,0.5167,0.5149,0.5135,0.5124,0,0.4809,0.4856,0.4888,0.4992,0.5027,0.5081,0.525,0.5335,0.5552,0.5724,0.5806,0.6135,0.6442,0.6689,0.6986,0.6888,0.7017,0.7022,0.6293,0.6192,0.6682,0.6654,0.6862,0.6855,0.6849,0.6844,0.684,0,0.4874,0.4903,0.4977,0.4988,0.506,0.516,0.5269,0.5378,0.5569,0.5693,0.5883,0.6032,0.6282,0.6527,0.6644,0.678,0.6969,0.6704,0.6702,0.6081,0.6005,0.6753,0.6722,0.6998,0.6995,0.6993,0.6991,0,0.4896,0.4961,0.4993,0.5018,0.5117,0.5179,0.5257,0.5419,0.5518,0.5707,0.5828,0.6027,0.6187,0.6345,0.6563,0.6489,0.6883,0.6777,0.6654,0.6639,0.6054,0.5975,0.6988,0.6988,0.6987,0.6986,0.6985,0,0.4934,0.4961,0.4997,0.5089,0.5113,0.5155,0.5307,0.538,0.5553,0.5641,0.5791,0.5885,0.608,0.6047,0.6357,0.6269,0.639,0.6467,0.648,0.6196,0.611,0.572,0.5739,0.6595,0.659,0.6586,0.6583,0,0.4955,0.4978,0.5004,0.5059,0.5085,0.5167,0.5244,0.5341,0.5437,0.5554,0.5665,0.579,0.5816,0.5895,0.5998,0.6137,0.6254,0.609,0.6315,0.6322,0.6077,0.6223,0.5516,0.5712,0.6533,0.6538,0.6542,0,0.4952,0.4988,0.4998,0.5027,0.5097,0.5122,0.5207,0.5299,0.5376,0.5465,0.5578,0.571,0.5777,0.581,0.5857,0.5941,0.6169,0.5953,0.5955,0.6087,0.6456,0.6188,0.6197,0.6176,0.6181,0.6185,0.6502,0,0.4972,0.4993,0.5006,0.5035,0.5075,0.5112,0.5163,0.5226,0.5287,0.5334,0.5488,0.5543,0.5638,0.5672,0.5685,0.5847,0.5869,0.5821,0.5753,0.5868,0.5989,0.6021,0.5606,0.5604,0.5602,0.56,0,0,0.4983,0.4976,0.4994,0.5011,0.5045,0.509,0.5117,0.5152,0.5212,0.5269,0.5276,0.543,0.5458,0.5574,0.5629,0.562,0.5698,0.5602,0.5791,0.5812,0.5832,0.5954,0.5987,0.5596,0.5595,0.5595,0.5594,0,0.4964,0.4982,0.4981,0.5008,0.5056,0.5069,0.5093,0.5126,0.5171,0.5232,0.5276,0.5367,0.541,0.5462,0.5486,0.5585,0.5616,0.5607,0.5663,0.5769,0.5793,0.5814,0.5939,0.5971,0.5589,0.5589,0.5589,0,0.4961,0.4966,0.4965,0.4986,0.5012,0.5032,0.5044,0.5086,0.5121,0.5125,0.5198,0.5256,0.528,0.5358,0.5394,0.5345,0.5525,0.5426,0.5436,0.5438,0.5544,0.5571,0.5595,0.529,0.529,0.5289,0,0,0.4957,0.4954,0.497,0.4982,0.4999,0.5024,0.5044,0.5068,0.51,0.5125,0.5156,0.5192,0.5252,0.5271,0.5311,0.5347,0.5382,0.5393,0.5407,0.5419,0.5428,0.5536,0.5561,0.5287,0.5287,0.5286,0,0,0.4954,0.4949,0.4966,0.4966,0.5001,0.5006,0.5036,0.5053,0.51,0.5121,0.5132,0.5143,0.5243,0.5213,0.5183,0.5296,0.5232,0.5238,0.5323,0.534,0.5354,0.5362,0.5157,0,0,0,0,0,0.4945,0.4942,0.4957,0.496,0.4969,0.4991,0.4995,0.5032,0.505,0.5079,0.5119,0.5109,0.5208,0.5181,0.5184,0.5252,0.5256,0.5262,0.5267,0.5388,0.5406,0.5422,0,0,0,0,0,0,0.4946,0.4946,0.4958,0.4957,0.496,0.4989,0.4994,0.5003,0.505,0.5059,0.5099,0.5107,0.5108,0.5178,0.5181,0.5247,0.5156,0.5259,0.5263,0.5267,0.5394,0.5409,0.5422,0,0,0,0,0,0.4947,0.4947,0.4953,0.4957,0.496,0.5005,0.4996,0.5004,0.5048,0.506,0.5071,0.5085,0.5106,0.5113,0.518,0.5247,0.5154,0.5155,0.5261,0.5265,0.5268,0.5401,0,0,0,0,0,0,0.4948,0.4945,0.4954,0.4957,0.4981,0.5007,0.5012,0.5004,0.5048,0.5059,0.5042,0.5048,0.5104,0.511,0.5115,0.525,0.5153,0.5154,0.5155,0.5264,0.5267,0.527,0,0,0,0,0,0,0.4946,0.4946,0.4955,0.4982,0.4988,0.5009,0.5013,0.5016,0.5049,0.5027,0.5033,0.5044,0.5113,0.5107,0.5111,0.5112,0.5152,0.5153,0.5153,0.5154,0.5266,0.5269,0,0,0,0,0,0,0.4947,0.4948,0.4981,0.4986,0.4991,0.502,0.5014,0.5028,0.5051,0.5024,0.5057,0.506,0.511,0.5114,0.5108,0.5107,0.5111,0.5152,0.5152,0.5153,0.5153,0,0,0,0,0,0,0,0.4948,0.4934,0.4944,0.4989,0.4993,0.4984,0.4984,0.4984,0.5052,0.5054,0.5057,0.5059,0.5146,0.5147,0.5148,0.5103,0,0,0.5152,0.5152,0,0,0,0,0,0,0,0,0.4934,0.4934,0.4945,0.4946,0.4947,0.4984,0.4984,0.4984,0.5052,0.5054,0.5056,0.5058,0.5146,0.5147,0.5148,0,0,0,0,0,0,0,0,0,0,0,0,0,0,0,0.4945,0.4946,0,0.4984,0.4984,0.4984,0.5052,0.5054,0.5056,0.5057,0.5146,0.5147,0.5148,0,0,0,0,0,0,0,0,0,0,0,0,0,0,0,0,0,0,0,0,0,0,0,0,0,0,0,0,0,0,0,0,0,0,0,0,0,0,0,0,0,0,0,0,0,0,0,0,0,0,0,0,0,0,0,0,0,0,0,0,0,0,0,0,0,0,0,0,0]}],[{"header":{"parameterUnit":"kt","parameterCategory":2,"dx":1,"dy":1,"la1":30.253999710083008,"la2":30.299108505249023,"lo1":-89.0895004272461,"lo2":-89.04439544677734,"nx":28,"ny":28,"refTime":"2022-09-21T09:00:00:Z","depth":"2","parameterNumber":3,"parameterNumberName":"V-component_of_CURRENTS"},"data":[0.0867,0.0991,0.1072,0.1363,0.1504,0.1784,0.1981,0.2401,0.252,0.2709,0.2502,0.2396,0.1245,0.0473,-0.0161,-0.0593,-0.0621,-0.0641,-0.043,-0.0412,-0.0396,-0.0867,-0.0859,0,0,0,0,0,0.0822,0.0915,0.1043,0.1228,0.14,0.1456,0.1756,0.1997,0.2395,0.2533,0.2793,0.1944,0.1415,0.0642,-0.0306,-0.0797,-0.0855,-0.0901,-0.0955,-0.0946,-0.0938,-0.094,-0.1028,-0.1029,-0.1029,-0.1029,0,0,0.0767,0.0835,0.0937,0.107,0.1204,0.1421,0.1581,0.1799,0.2066,0.2392,0.2378,0.2346,0.1584,0.0665,0.0167,-0.0433,-0.0447,-0.0769,-0.0768,-0.0766,-0.0757,-0.069,-0.0798,-0.0797,-0.0796,-0.0795,-0.0794,0,0.0728,0.0753,0.0834,0.0965,0.1071,0.1218,0.1359,0.1479,0.1592,0.1751,0.1963,0.202,0.1578,0.1058,0.0386,0.0026,-0.0451,-0.0557,-0.0411,-0.0777,-0.0708,-0.0776,-0.0769,-0.0825,-0.0824,-0.0823,-0.0823,-0.0823,0.0661,0.0711,0.0817,0.0884,0.0923,0.1029,0.112,0.1175,0.1272,0.1411,0.1488,0.1425,0.1444,0.098,0.0376,-0.012,-0.0202,-0.0523,-0.0703,-0.0538,-0.0608,-0.0605,-0.0603,-0.0813,-0.0814,-0.0815,-0.0816,0,0.0626,0.0659,0.0752,0.0829,0.0862,0.0932,0.1047,0.1117,0.1124,0.1224,0.1221,0.1152,0.1007,0.0667,0.029,-0.0018,-0.0327,-0.0446,-0.044,-0.0512,-0.0607,-0.0604,-0.0632,-0.0631,-0.0631,-0.063,-0.063,0,0.0574,0.0635,0.0687,0.0729,0.0832,0.0844,0.0936,0.0923,0.094,0.1012,0.0846,0.089,0.0521,0.0382,0.007,-0.0201,-0.0204,-0.0527,-0.0601,-0.0667,-0.067,-0.0701,-0.0709,-0.0625,-0.0624,-0.0624,-0.0624,0,0.0509,0.0577,0.0654,0.0671,0.0724,0.0758,0.078,0.0753,0.0779,0.0707,0.0732,0.0547,0.0489,0.023,-0.0041,-0.0106,-0.0281,-0.0438,-0.0593,-0.0592,-0.075,-0.0761,-0.0623,-0.0623,-0.0623,-0.0623,-0.0623,0,0.0452,0.0492,0.0571,0.0647,0.0656,0.0677,0.07,0.0697,0.0626,0.0578,0.0485,0.0362,0.0236,0.009,-0.0155,-0.012,-0.0313,-0.046,-0.0468,-0.0528,-0.0649,-0.07,-0.0673,-0.0583,-0.0582,-0.0582,-0.0581,0,0.0405,0.0465,0.0456,0.0519,0.0548,0.0496,0.0508,0.0461,0.0402,0.037,0.0202,0.0125,-0.0024,-0.0076,-0.0177,-0.0361,-0.0434,-0.0405,-0.066,-0.0665,-0.0596,-0.0545,-0.0623,-0.0663,-0.0575,-0.0576,-0.0576,0,0.0351,0.0373,0.0372,0.0406,0.0365,0.0356,0.0348,0.0305,0.031,0.0189,0.0183,-0.0015,-0.0097,-0.0196,-0.034,-0.0424,-0.043,-0.0527,-0.0537,-0.0478,-0.0564,-0.0541,-0.0542,-0.053,-0.0531,-0.0531,-0.0572,0,0.0333,0.0338,0.0342,0.0324,0.0305,0.0297,0.0224,0.0192,0.013,0.0062,-0.0031,-0.0209,-0.0343,-0.0408,-0.0512,-0.0564,-0.0592,-0.0695,-0.0738,-0.0709,-0.0736,-0.0739,-0.0768,-0.0772,-0.0775,-0.0778,0,0,0.0286,0.0285,0.0216,0.0221,0.0208,0.0104,0.012,0.0059,-0.0066,-0.0095,-0.0148,-0.0371,-0.0508,-0.0608,-0.0615,-0.0708,-0.0749,-0.0684,-0.0744,-0.0739,-0.0735,-0.0756,-0.0755,-0.0784,-0.0785,-0.0786,-0.0787,0,0.0266,0.0219,0.0226,0.019,0.0125,0.0072,0.0065,-0.0032,-0.0079,-0.0153,-0.0277,-0.0383,-0.0546,-0.0651,-0.073,-0.0744,-0.0812,-0.0789,-0.0677,-0.0769,-0.0759,-0.0752,-0.077,-0.0766,-0.0795,-0.0795,-0.0795,0,0.0228,0.0182,0.0169,0.0095,0.0042,0.0026,-0.0067,-0.0112,-0.0131,-0.0297,-0.0356,-0.0472,-0.0639,-0.0719,-0.0771,-0.0808,-0.0879,-0.0882,-0.087,-0.0842,-0.0941,-0.0931,-0.0922,-0.1022,-0.1021,-0.1021,0,0,0.0212,0.0195,0.0104,0.008,0.0057,-0.004,-0.0078,-0.0134,-0.0236,-0.028,-0.0384,-0.0517,-0.0624,-0.0692,-0.0797,-0.0876,-0.0936,-0.0896,-0.0885,-0.0875,-0.0841,-0.0937,-0.0929,-0.1018,-0.1018,-0.1018,0,0,0.0192,0.0107,0.0076,0.0043,-0.002,-0.0129,-0.0147,-0.0206,-0.0306,-0.0321,-0.0457,-0.0494,-0.0582,-0.0692,-0.0649,-0.0797,-0.0861,-0.0872,-0.0676,-0.0666,-0.0656,-0.0577,-0.072,0,0,0,0,0,0.0128,0.0124,0.0098,0.008,-0.0037,-0.0106,-0.0124,-0.0214,-0.025,-0.0261,-0.0383,-0.0437,-0.0709,-0.0673,-0.0703,-0.0681,-0.099,-0.0995,-0.1,-0.0769,-0.0756,-0.0745,0,0,0,0,0,0,0.012,0.0101,0.0097,-0.0006,-0.0035,-0.0106,-0.0174,-0.0198,-0.0251,-0.0263,-0.0413,-0.0441,-0.053,-0.0664,-0.0689,-0.0665,-0.0711,-0.0992,-0.0996,-0.1,-0.0764,-0.0754,-0.0745,0,0,0,0,0,0.0114,0.0098,-0.0063,-0.0008,-0.0033,-0.015,-0.0175,-0.0196,-0.024,-0.0383,-0.0411,-0.0306,-0.0527,-0.0558,-0.0679,-0.0651,-0.0694,-0.0704,-0.0994,-0.0998,-0.1001,-0.0759,0,0,0,0,0,0,0.0109,0.0076,-0.0071,-0.0082,-0.0017,-0.0149,-0.0171,-0.0193,-0.036,-0.0387,-0.0282,-0.0289,-0.0524,-0.0549,-0.0572,-0.0639,-0.068,-0.069,-0.0696,-0.0997,-0.1,-0.1002,0,0,0,0,0,0,0.0083,0.0067,-0.0077,-0.0082,-0.0096,-0.0147,-0.0166,-0.0257,-0.0363,-0.0251,-0.0261,-0.0283,-0.0511,-0.0542,-0.0561,-0.0697,-0.067,-0.0679,-0.0685,-0.0689,-0.0999,-0.1001,0,0,0,0,0,0,0.0074,0.006,-0.008,-0.009,-0.0102,-0.024,-0.0233,-0.036,-0.0328,-0.0243,-0.0332,-0.0334,-0.0504,-0.0524,-0.0553,-0.068,-0.0693,-0.067,-0.0676,-0.0681,-0.0683,0,0,0,0,0,0,0,0.0067,0.0189,-0.0002,-0.0096,-0.0107,-0.0191,-0.0194,-0.0197,-0.0329,-0.033,-0.0332,-0.0334,-0.0619,-0.0629,-0.0639,-0.0667,0,0,-0.0669,-0.0674,0,0,0,0,0,0,0,0,0.0192,0.019,-0.0002,-0.0005,-0.0007,-0.0192,-0.0194,-0.0197,-0.0329,-0.033,-0.0332,-0.0333,-0.0621,-0.0629,-0.0637,0,0,0,0,0,0,0,0,0,0,0,0,0,0,0,-0.0003,-0.0005,0,-0.0192,-0.0194,-0.0196,-0.0329,-0.033,-0.0331,-0.0332,-0.0624,-0.063,-0.0637,0,0,0,0,0,0,0,0,0,0,0,0,0,0,0,0,0,0,0,0,0,0,0,0,0,0,0,0,0,0,0,0,0,0,0,0,0,0,0,0,0,0,0,0,0,0,0,0,0,0,0,0,0,0,0,0,0,0,0,0,0,0,0,0,0,0,0,0,0]}]],[[{"header":{"parameterUnit":"kt","parameterCategory":2,"dx":1,"dy":1,"la1":30.253999710083008,"la2":30.299108505249023,"lo1":-89.0895004272461,"lo2":-89.04439544677734,"nx":28,"ny":28,"refTime":"2022-09-21T09:00:00:Z","depth":"4","parameterNumber":2,"parameterNumberName":"U-component_of_CURRENTS"},"data":[0.0756,0.0889,0.091,0.1087,0.1232,0.1463,0.1509,0.1543,0.1398,0.154,0.1393,0.17,0.148,0.1624,0.1367,0.1369,0.1506,0.1403,0.1401,0.1681,0.1701,0.1718,0.1699,0,0,0,0,0,0.0796,0.0827,0.1,0.1222,0.1506,0.1683,0.1784,0.1831,0.194,0.1766,0.1876,0.1675,0.1551,0.144,0.1349,0.1455,0.153,0.1352,0.1586,0.1693,0.1715,0.1689,0,0,0,0,0,0,0.0824,0.0907,0.1115,0.1365,0.1669,0.1742,0.1853,0.1888,0.1954,0.2097,0.1923,0.1898,0.1985,0.1806,0.1599,0.1561,0.1562,0.1607,0.1632,0.1654,0.1615,0.1608,0.1334,0,0,0,0,0,0.0854,0.1016,0.1156,0.1455,0.1736,0.1919,0.2189,0.2144,0.2342,0.2589,0.2366,0.2306,0.2136,0.1964,0.1905,0.1696,0.1976,0.1838,0.1851,0.1903,0.1918,0.1871,0.1886,0.1799,0.1802,0.1804,0.1805,0,0.0911,0.0995,0.1337,0.1493,0.1721,0.2041,0.2244,0.2514,0.2565,0.2688,0.2629,0.2637,0.2598,0.2198,0.2145,0.1952,0.189,0.1896,0.1951,0.1955,0.19,0.191,0.1919,0.1823,0.1821,0.182,0.1818,0,0.095,0.1107,0.128,0.1613,0.1751,0.1969,0.2333,0.2467,0.272,0.2802,0.287,0.2898,0.2737,0.2698,0.2491,0.2396,0.2161,0.2044,0.2271,0.2216,0.195,0.1952,0.1852,0.1845,0.184,0.1835,0.1831,0,0.1039,0.115,0.143,0.1508,0.1768,0.1967,0.2255,0.2432,0.265,0.272,0.2894,0.2827,0.2878,0.2763,0.2606,0.2357,0.2431,0.2185,0.2118,0.2319,0.2319,0.2269,0.2264,0.232,0.2321,0.2321,0.2322,0,0.1049,0.1254,0.1406,0.1475,0.1737,0.193,0.2129,0.238,0.2495,0.271,0.2789,0.281,0.2846,0.2735,0.2571,0.2597,0.2408,0.24,0.2161,0.2149,0.227,0.2264,0.2322,0.2322,0.2322,0.2323,0.2323,0,0.1132,0.1223,0.139,0.1593,0.1665,0.1841,0.2123,0.2267,0.2476,0.2583,0.2668,0.2701,0.27,0.2657,0.2546,0.2576,0.2488,0.2399,0.2393,0.22,0.21,0.221,0.2291,0.2291,0.2291,0.2292,0.2292,0,0.1126,0.1239,0.1339,0.1516,0.1609,0.1783,0.1958,0.2113,0.2278,0.2437,0.2444,0.2553,0.2513,0.2551,0.2514,0.2415,0.2391,0.2409,0.2273,0.227,0.2105,0.2137,0.2354,0.2294,0.2294,0.2293,0.2293,0,0.1078,0.1248,0.1288,0.1378,0.1587,0.1639,0.1841,0.2003,0.2147,0.2288,0.242,0.2434,0.2464,0.2452,0.2406,0.2376,0.2386,0.2346,0.2341,0.2313,0.2327,0.216,0.2142,0.2352,0.2352,0.2352,0.2295,0,0.108,0.1198,0.1255,0.1406,0.1496,0.1605,0.1734,0.1878,0.2053,0.2115,0.2259,0.2255,0.2308,0.2295,0.227,0.2287,0.2274,0.222,0.2167,0.2234,0.22,0.22,0.2176,0.2174,0.2172,0.2171,0,0,0.1057,0.1129,0.1211,0.1281,0.1376,0.1512,0.1603,0.1684,0.1846,0.1928,0.201,0.2104,0.2118,0.2122,0.2162,0.2152,0.214,0.2181,0.2209,0.2214,0.2218,0.2189,0.2191,0.2168,0.2167,0.2166,0.2166,0,0.1007,0.1118,0.1185,0.1246,0.1391,0.1432,0.1515,0.1617,0.1732,0.188,0.1904,0.1979,0.2079,0.2046,0.2035,0.2127,0.2081,0.2149,0.2239,0.2196,0.2203,0.2209,0.2182,0.2184,0.2162,0.2162,0.2162,0,0.098,0.1044,0.109,0.1182,0.1256,0.1328,0.1365,0.1486,0.1581,0.1596,0.1824,0.1839,0.183,0.1902,0.1966,0.1942,0.2021,0.2016,0.2025,0.2042,0.1993,0.2002,0.2011,0.19,0.1899,0.1899,0,0,0.0962,0.1034,0.11,0.1174,0.1233,0.1306,0.1364,0.1432,0.1521,0.1592,0.1696,0.1778,0.1799,0.1873,0.1892,0.1957,0.1917,0.1987,0.1999,0.2009,0.2032,0.1987,0.1996,0.1897,0.1897,0.1896,0,0,0.0936,0.1022,0.109,0.1161,0.1234,0.1235,0.1327,0.1393,0.1516,0.1601,0.1641,0.1672,0.1823,0.1816,0.1787,0.1879,0.1824,0.1831,0.1895,0.191,0.1922,0.1943,0.1737,0,0,0,0,0,0.0954,0.0995,0.1056,0.1081,0.1153,0.1186,0.1195,0.1313,0.142,0.1478,0.1602,0.16,0.1798,0.1772,0.1779,0.1825,0.1866,0.1872,0.1877,0.1973,0.1989,0.2003,0,0,0,0,0,0,0.0963,0.0984,0.1055,0.1055,0.1077,0.1181,0.1231,0.1256,0.142,0.1448,0.1568,0.1594,0.1583,0.1767,0.1774,0.1818,0.1735,0.1869,0.1873,0.1877,0.1979,0.1992,0.2003,0,0,0,0,0,0.097,0.0988,0.1103,0.1054,0.1072,0.1219,0.1237,0.126,0.1405,0.1435,0.147,0.1531,0.1573,0.1595,0.1771,0.1815,0.173,0.1733,0.1871,0.1875,0.1878,0.1985,0,0,0,0,0,0,0.0977,0.0946,0.1106,0.1115,0.1141,0.1221,0.1243,0.1263,0.1387,0.1421,0.1384,0.1402,0.1565,0.1584,0.1599,0.1816,0.1727,0.1729,0.1731,0.1874,0.1877,0.1879,0,0,0,0,0,0,0.094,0.0951,0.1109,0.1213,0.1232,0.1223,0.1243,0.1241,0.1391,0.1324,0.1346,0.1392,0.1614,0.1574,0.1588,0.157,0.1724,0.1726,0.1728,0.1729,0.1876,0.1879,0,0,0,0,0,0,0.0946,0.0955,0.1209,0.1224,0.1241,0.1317,0.1225,0.1326,0.1397,0.1316,0.1421,0.1432,0.1606,0.1617,0.1578,0.1554,0.1566,0.1724,0.1726,0.1727,0.1727,0,0,0,0,0,0,0,0.095,0.0878,0.1093,0.1233,0.1249,0.1195,0.1193,0.1192,0.1399,0.1409,0.1418,0.1427,0.171,0.1713,0.1716,0.154,0,0,0.1724,0.1725,0,0,0,0,0,0,0,0,0.0876,0.0878,0.1093,0.1097,0.11,0.1194,0.1193,0.1193,0.1401,0.1408,0.1416,0.1423,0.1711,0.1713,0.1715,0,0,0,0,0,0,0,0,0,0,0,0,0,0,0,0.1094,0.1097,0,0.1194,0.1193,0.1193,0.1402,0.1408,0.1415,0.1421,0.1712,0.1713,0.1715,0,0,0,0,0,0,0,0,0,0,0,0,0,0,0,0,0,0,0,0,0,0,0,0,0,0,0,0,0,0,0,0,0,0,0,0,0,0,0,0,0,0,0,0,0,0,0,0,0,0,0,0,0,0,0,0,0,0,0,0,0,0,0,0,0,0,0,0,0]}],[{"header":{"parameterUnit":"kt","parameterCategory":2,"dx":1,"dy":1,"la1":30.253999710083008,"la2":30.299108505249023,"lo1":-89.0895004272461,"lo2":-89.04439544677734,"nx":28,"ny":28,"refTime":"2022-09-21T09:00:00:Z","depth":"4","parameterNumber":3,"parameterNumberName":"V-component_of_CURRENTS"},"data":[0.0522,0.0593,0.0604,0.0723,0.0809,0.0942,0.0936,0.0893,0.0788,0.07,0.0463,0.0426,0.0016,0.013,-0.0379,-0.044,-0.0543,-0.0864,-0.0866,-0.1046,-0.1051,-0.1055,-0.0999,0,0,0,0,0,0.0542,0.0562,0.0628,0.0712,0.0851,0.0925,0.0923,0.0903,0.0848,0.0724,0.0628,0.0378,-0.0015,-0.0258,-0.0414,-0.0518,-0.0789,-0.0705,-0.085,-0.1049,-0.1054,-0.0998,0,0,0,0,0,0,0.0544,0.0572,0.0646,0.0719,0.0832,0.0868,0.086,0.0822,0.0788,0.0634,0.0533,0.0206,0.0021,-0.0323,-0.0541,-0.0711,-0.0767,-0.0815,-0.0832,-0.0839,-0.0759,-0.0652,-0.0618,0,0,0,0,0,0.0539,0.0592,0.061,0.0713,0.0776,0.0813,0.0834,0.0813,0.072,0.0712,0.0469,0.0219,-0.0029,-0.0399,-0.0574,-0.0809,-0.1006,-0.1028,-0.1033,-0.1067,-0.1011,-0.1018,-0.1013,-0.1074,-0.1075,-0.1075,-0.1076,0,0.0545,0.0562,0.0611,0.0649,0.0658,0.0669,0.0689,0.0613,0.0604,0.0431,0.0414,0.0183,-0.0012,-0.0389,-0.0665,-0.0953,-0.0986,-0.1041,-0.1076,-0.1018,-0.1026,-0.1019,-0.1013,-0.108,-0.108,-0.1079,-0.1079,0,0.0556,0.0551,0.0558,0.054,0.0545,0.0548,0.0525,0.0507,0.0414,0.0357,0.0325,0.0048,-0.0187,-0.0425,-0.0721,-0.0835,-0.103,-0.1059,-0.1026,-0.1037,-0.1025,-0.1017,-0.1087,-0.1085,-0.1084,-0.1083,-0.1082,0,0.0534,0.0527,0.0518,0.0516,0.0518,0.0433,0.0412,0.0322,0.0226,0.0179,-0.0015,-0.0118,-0.0399,-0.0562,-0.075,-0.092,-0.0962,-0.1031,-0.1045,-0.106,-0.1052,-0.1088,-0.1082,-0.1134,-0.1133,-0.1133,-0.1133,0,0.053,0.0483,0.0478,0.0456,0.0381,0.0365,0.0316,0.0185,0.0136,-0.0035,-0.0076,-0.0312,-0.0395,-0.0577,-0.0776,-0.079,-0.0991,-0.1021,-0.1031,-0.1025,-0.1083,-0.1078,-0.1132,-0.1132,-0.1132,-0.1132,-0.1132,0,0.0488,0.0476,0.0449,0.0386,0.0368,0.0338,0.0242,0.016,0.0001,-0.0093,-0.0243,-0.0371,-0.0526,-0.0578,-0.08,-0.077,-0.0854,-0.0941,-0.0945,-0.0911,-0.0909,-0.0928,-0.0975,-0.0973,-0.0972,-0.0971,-0.097,0,0.0498,0.0464,0.0426,0.0378,0.0349,0.0267,0.0203,0.0089,-0.0028,-0.0149,-0.0306,-0.0437,-0.0532,-0.0597,-0.0688,-0.0827,-0.0872,-0.0824,-0.0951,-0.0954,-0.0875,-0.0909,-0.0895,-0.0952,-0.0955,-0.0956,-0.0957,0,0.0501,0.0443,0.0444,0.0419,0.0329,0.0283,0.0196,0.0086,0.0026,-0.0155,-0.0258,-0.0464,-0.0542,-0.062,-0.0714,-0.078,-0.0843,-0.082,-0.0824,-0.0817,-0.0958,-0.0894,-0.0898,-0.0885,-0.0887,-0.0888,-0.0945,0,0.0456,0.0446,0.0438,0.0385,0.0334,0.0285,0.0186,0.0102,0.0002,-0.0097,-0.0276,-0.0433,-0.0584,-0.0635,-0.0706,-0.0798,-0.0804,-0.0829,-0.0815,-0.0844,-0.0864,-0.0874,-0.0774,-0.0774,-0.0775,-0.0775,0,0,0.0473,0.0457,0.0425,0.0393,0.0358,0.0268,0.0223,0.014,-0.0039,-0.0105,-0.0155,-0.0436,-0.0543,-0.0674,-0.0702,-0.0759,-0.0789,-0.075,-0.083,-0.0836,-0.0842,-0.0862,-0.087,-0.0776,-0.0776,-0.0777,-0.0777,0,0.0456,0.0453,0.0448,0.0396,0.032,0.0264,0.0239,0.0114,0.0041,-0.0112,-0.0208,-0.0339,-0.0533,-0.0614,-0.0679,-0.0758,-0.0792,-0.079,-0.0771,-0.0833,-0.0838,-0.0842,-0.0863,-0.087,-0.0778,-0.0778,-0.0778,0,0.0445,0.0426,0.0425,0.0365,0.031,0.0257,0.0202,0.013,0.0063,-0.0063,-0.0208,-0.0323,-0.045,-0.0575,-0.0643,-0.0633,-0.0779,-0.0753,-0.0752,-0.0755,-0.0819,-0.0825,-0.083,-0.076,-0.0759,-0.0759,0,0,0.0434,0.0438,0.0366,0.0356,0.0331,0.0233,0.0191,0.0127,0.0013,-0.0044,-0.017,-0.0295,-0.0414,-0.0485,-0.0601,-0.0714,-0.0742,-0.0747,-0.0748,-0.0748,-0.075,-0.0815,-0.0821,-0.0757,-0.0757,-0.0757,0,0,0.0413,0.0374,0.0354,0.0349,0.0274,0.0176,0.0151,0.0087,-0.0043,-0.0064,-0.0186,-0.0226,-0.0376,-0.0437,-0.0403,-0.058,-0.058,-0.0591,-0.0531,-0.0534,-0.0535,-0.0507,-0.0433,0,0,0,0,0,0.0375,0.0388,0.0371,0.0362,0.0278,0.0196,0.0176,0.0101,0.0069,0.0031,-0.0099,-0.0135,-0.0436,-0.0409,-0.0445,-0.0473,-0.0735,-0.0739,-0.0742,-0.0695,-0.0696,-0.0697,0,0,0,0,0,0,0.0372,0.0363,0.037,0.0285,0.0265,0.0196,0.0163,0.014,0.007,0.006,-0.011,-0.0139,-0.0213,-0.0395,-0.0427,-0.0451,-0.0423,-0.0736,-0.074,-0.0743,-0.0695,-0.0696,-0.0697,0,0,0,0,0,0.0369,0.0362,0.0258,0.0282,0.0264,0.0169,0.0162,0.0143,0.0068,-0.0051,-0.0082,0.0014,-0.021,-0.0246,-0.0414,-0.0434,-0.0402,-0.0413,-0.0738,-0.0741,-0.0743,-0.0696,0,0,0,0,0,0,0.0366,0.032,0.0251,0.0241,0.0283,0.0168,0.0152,0.0145,-0.0043,-0.0069,0.007,0.0065,-0.0208,-0.0237,-0.0264,-0.0423,-0.0384,-0.0396,-0.0403,-0.074,-0.0742,-0.0744,0,0,0,0,0,0,0.0324,0.0313,0.0245,0.0251,0.024,0.0168,0.0154,0.0037,-0.0047,0.0085,0.0077,0.007,-0.0189,-0.023,-0.0252,-0.0429,-0.0371,-0.0382,-0.039,-0.0395,-0.0742,-0.0744,0,0,0,0,0,0,0.0317,0.0307,0.0252,0.0244,0.0235,0.0111,0.0057,-0.0042,0.0018,0.0091,0.0017,0.0016,-0.0182,-0.0205,-0.0242,-0.041,-0.0424,-0.0372,-0.0379,-0.0384,-0.0388,0,0,0,0,0,0,0,0.0311,0.0407,0.032,0.0239,0.023,0.0151,0.0147,0.0143,0.0018,0.0018,0.0017,0.0016,-0.0308,-0.032,-0.0332,-0.0395,0,0,-0.037,-0.0376,0,0,0,0,0,0,0,0,0.0408,0.0407,0.032,0.0318,0.0317,0.015,0.0147,0.0144,0.0018,0.0018,0.0017,0.0016,-0.0311,-0.0321,-0.0331,0,0,0,0,0,0,0,0,0,0,0,0,0,0,0,0.032,0.0318,0,0.015,0.0147,0.0145,0.0018,0.0018,0.0017,0.0017,-0.0314,-0.0322,-0.033,0,0,0,0,0,0,0,0,0,0,0,0,0,0,0,0,0,0,0,0,0,0,0,0,0,0,0,0,0,0,0,0,0,0,0,0,0,0,0,0,0,0,0,0,0,0,0,0,0,0,0,0,0,0,0,0,0,0,0,0,0,0,0,0,0,0,0,0,0]}]]]